This is the latest recevied weather packets stored in our database for station/object K7NDG. If no packets are shown the sender has not sent any weather packets the latest 10 day(s).
| Time | Temp. | Humidity | Pressure | Rain* | Wind** | Luminosity | Snow |
|---|---|---|---|---|---|---|---|
| 1778099381 | 12.78° C | 81% | 1022.5 hPa | 0 mm | - | 133 W/m² | - |
| 1778098775 | 12.78° C | 82% | 1022.4 hPa | 0 mm | - | 113 W/m² | - |
| 1778098169 | 12.78° C | 83% | 1022.3 hPa | 0 mm | - | 105 W/m² | - |
| 1778096653 | 12.78° C | 82% | 1022.1 hPa | 0 mm | - | 65 W/m² | - |
| 1778096047 | 12.78° C | 81% | 1022.1 hPa | 0 mm | - | 66 W/m² | - |
| 1778095743 | 12.78° C | 80% | 1022.3 hPa | 0 mm | - | 66 W/m² | - |
| 1778095440 | 12.78° C | 79% | 1021.8 hPa | 0 mm | - | 95 W/m² | - |
| 1778095137 | 12.78° C | 80% | 1022 hPa | 0 mm | - | 99 W/m² | - |
| 1778094833 | 12.78° C | 80% | 1022.1 hPa | 0 mm | - | 89 W/m² | - |
| 1778094530 | 12.78° C | 79% | 1022 hPa | 0 mm | - | 110 W/m² | - |
| 1778092407 | 12.78° C | 78% | 1021.9 hPa | 0 mm | - | 89 W/m² | - |
| 1778092105 | 12.78° C | 78% | 1021.8 hPa | 0 mm | - | 106 W/m² | - |
| 1778091499 | 12.78° C | 78% | 1021.9 hPa | 0 mm | - | 97 W/m² | - |
| 1778090894 | 12.78° C | 78% | 1021.9 hPa | 0 mm | - | 128 W/m² | - |
| 1778089075 | 12.22° C | 79% | 1021.8 hPa | 0 mm | - | 70 W/m² | - |
| 1778088469 | 12.22° C | 78% | 1021.6 hPa | 0 mm | - | 61 W/m² | - |
| 1778087258 | 12.78° C | 78% | 1021.6 hPa | 0 mm | - | 73 W/m² | - |
| 1778086954 | 12.22° C | 79% | 1021.4 hPa | 0 mm | - | 84 W/m² | - |
| 1778085440 | 12.22° C | 78% | 1021.4 hPa | 0 mm | - | 54 W/m² | - |
| 1778085135 | 12.22° C | 78% | 1021.2 hPa | 0 mm | - | 43 W/m² | - |
| 1778084529 | 12.22° C | 78% | 1021.4 hPa | 0 mm | - | 57 W/m² | - |
| 1778084226 | 12.22° C | 78% | 1021.2 hPa | 0 mm | - | 59 W/m² | - |
| 1778083621 | 12.22° C | 79% | 1021.4 hPa | 0 mm | - | 56 W/m² | - |
| 1778083317 | 12.22° C | 79% | 1021.4 hPa | 0 mm | - | 53 W/m² | - |
| 1778081271 | 12.22° C | 80% | 1021 hPa | 0 mm | - | 37 W/m² | - |
* Rain latest hour (hover to see other rain measurements)
** Current wind speed in m/s (hover to see current wind gust speed)